Time,TemperatureF,DewpointF,PressureIn,WindDirection,WindDirectionDegrees,WindSpeedMPH,WindSpeedGustMPH,Humidity,HourlyPrecipIn,Conditions,Clouds,dailyrainin,SoftwareType,DateUTC
2013-02-05 00:00:00,35.8,20.8,29.93,WSW,240,2.0,2.0,54,0.00,,,0.00,Wunderground v.1.15,2013-02-05 05:00:00,
2013-02-05 00:02:00,35.8,20.8,29.93,WSW,238,2.0,2.0,54,0.00,,,0.00,Wunderground v.1.15,2013-02-05 05:02:00,
2013-02-05 00:03:00,35.8,20.8,29.93,WNW,284,1.0,2.0,54,0.00,,,0.00,Wunderground v.1.15,2013-02-05 05:03:00,
2013-02-05 00:05:00,35.8,20.8,29.93,WSW,238,1.0,2.0,54,0.00,,,0.00,Wunderground v.1.15,2013-02-05 05:05:00,
2013-02-05 00:10:00,35.7,21.1,29.93,SW,233,2.0,2.0,55,0.00,,,0.00,Wunderground v.1.15,2013-02-05 05:10:00,
2013-02-05 00:16:00,35.7,21.1,29.93,SW,222,2.0,2.0,55,0.00,,,0.00,Wunderground v.1.15,2013-02-05 05:16:00,
2013-02-05 00:22:00,35.7,21.1,29.93,WSW,243,2.0,2.0,55,0.00,,,0.00,Wunderground v.1.15,2013-02-05 05:22:00,
2013-02-05 00:28:00,35.7,21.1,29.93,WSW,243,2.0,2.0,55,0.00,,,0.00,Wunderground v.1.15,2013-02-05 05:28:00,
2013-02-05 00:34:00,35.8,21.2,29.93,SW,233,2.0,3.0,55,0.00,,,0.00,Wunderground v.1.15,2013-02-05 05:34:00,
2013-02-05 00:40:00,35.8,21.2,29.92,WNW,295,1.0,2.0,55,0.00,,,0.00,Wunderground v.1.15,2013-02-05 05:40:00,
2013-02-05 00:46:00,35.9,21.3,29.92,West,263,1.0,2.0,55,0.00,,,0.00,Wunderground v.1.15,2013-02-05 05:46:00,
2013-02-05 00:52:00,35.9,21.3,29.92,West,263,1.0,1.0,55,0.00,,,0.00,Wunderground v.1.15,2013-02-05 05:52:00,
2013-02-05 00:57:00,36.0,21.8,29.92,West,266,3.0,3.0,56,0.00,,,0.00,Wunderground v.1.15,2013-02-05 05:57:00,
2013-02-05 01:03:00,35.9,21.3,29.92,WSW,240,1.0,2.0,55,0.00,,,0.00,Wunderground v.1.15,2013-02-05 06:03:00,
2013-02-05 01:09:00,35.8,21.6,29.92,WSW,250,1.0,2.0,56,0.00,,,0.00,Wunderground v.1.15,2013-02-05 06:09:00,
2013-02-05 01:14:00,35.6,21.4,29.92,WSW,252,2.0,2.0,56,0.00,,,0.00,Wunderground v.1.15,2013-02-05 06:14:00,
2013-02-05 01:20:00,35.4,21.7,29.91,West,264,2.0,2.0,57,0.00,,,0.00,Wunderground v.1.15,2013-02-05 06:20:00,
2013-02-05 01:26:00,35.2,21.5,29.91,WSW,246,1.0,2.0,57,0.00,,,0.00,Wunderground v.1.15,2013-02-05 06:26:00,
2013-02-05 01:31:00,35.1,21.8,29.91,SW,228,0.0,1.0,58,0.00,,,0.00,Wunderground v.1.15,2013-02-05 06:31:00,
2013-02-05 01:37:00,34.7,21.4,29.91,WSW,240,1.0,2.0,58,0.00,,,0.00,Wunderground v.1.15,2013-02-05 06:37:00,
2013-02-05 01:42:00,34.6,21.7,29.91,WSW,238,1.0,1.0,59,0.00,,,0.00,Wunderground v.1.15,2013-02-05 06:42:00,
2013-02-05 01:48:00,34.7,21.8,29.91,WSW,240,2.0,2.0,59,0.00,,,0.00,Wunderground v.1.15,2013-02-05 06:48:00,
2013-02-05 01:54:00,35.0,22.1,29.91,SW,218,2.0,3.0,59,0.00,,,0.00,Wunderground v.1.15,2013-02-05 06:54:00,
2013-02-05 01:59:00,35.2,22.3,29.91,WSW,240,3.0,3.0,59,0.00,,,0.00,Wunderground v.1.15,2013-02-05 06:59:00,
2013-02-05 02:04:00,35.5,22.6,29.91,SW,235,3.0,4.0,59,0.00,,,0.00,Wunderground v.1.15,2013-02-05 07:04:00,
2013-02-05 02:09:00,35.7,22.4,29.91,WSW,242,2.0,4.0,58,0.00,,,0.00,Wunderground v.1.15,2013-02-05 07:09:00,
2013-02-05 02:14:00,36.0,22.6,29.91,SW,236,2.0,4.0,58,0.00,,,0.00,Wunderground v.1.15,2013-02-05 07:14:00,
2013-02-05 02:19:00,36.1,22.7,29.91,SW,219,3.0,5.0,58,0.00,,,0.00,Wunderground v.1.15,2013-02-05 07:19:00,
2013-02-05 02:24:00,36.2,22.8,29.91,WSW,252,3.0,4.0,58,0.00,,,0.00,Wunderground v.1.15,2013-02-05 07:24:00,
2013-02-05 02:29:00,36.2,22.8,29.91,West,276,1.0,4.0,58,0.00,,,0.00,Wunderground v.1.15,2013-02-05 07:29:00,
2013-02-05 02:34:00,36.3,22.9,29.91,WSW,255,3.0,3.0,58,0.00,,,0.00,Wunderground v.1.15,2013-02-05 07:34:00,
2013-02-05 02:39:00,36.4,23.0,29.91,WSW,238,2.0,4.0,58,0.00,,,0.00,Wunderground v.1.15,2013-02-05 07:39:00,
2013-02-05 02:44:00,36.5,23.1,29.91,West,264,2.0,4.0,58,0.00,,,0.00,Wunderground v.1.15,2013-02-05 07:44:00,
2013-02-05 02:49:00,36.6,23.2,29.91,West,266,3.0,4.0,58,0.00,,,0.00,Wunderground v.1.15,2013-02-05 07:49:00,
2013-02-05 02:54:00,36.7,23.3,29.90,WSW,249,2.0,4.0,58,0.00,,,0.00,Wunderground v.1.15,2013-02-05 07:54:00,
2013-02-05 02:59:00,36.7,23.3,29.90,West,259,2.0,5.0,58,0.00,,,0.00,Wunderground v.1.15,2013-02-05 07:59:00,
2013-02-05 03:04:00,36.8,23.4,29.90,WSW,256,2.0,4.0,58,0.00,,,0.00,Wunderground v.1.15,2013-02-05 08:04:00,
2013-02-05 03:09:00,36.9,23.5,29.90,SW,215,2.0,5.0,58,0.00,,,0.00,Wunderground v.1.15,2013-02-05 08:09:00,
2013-02-05 03:14:00,36.9,23.5,29.90,WSW,248,2.0,5.0,58,0.00,,,0.00,Wunderground v.1.15,2013-02-05 08:14:00,
2013-02-05 03:19:00,36.9,23.5,29.90,WSW,246,5.0,5.0,58,0.00,,,0.00,Wunderground v.1.15,2013-02-05 08:19:00,
2013-02-05 03:24:00,37.0,23.6,29.90,West,278,3.0,7.0,58,0.00,,,0.00,Wunderground v.1.15,2013-02-05 08:24:00,
2013-02-05 03:29:00,37.0,23.6,29.90,WSW,246,4.0,7.0,58,0.00,,,0.00,Wunderground v.1.15,2013-02-05 08:29:00,
2013-02-05 03:34:00,37.1,23.7,29.89,WSW,242,4.0,6.0,58,0.00,,,0.00,Wunderground v.1.15,2013-02-05 08:34:00,
2013-02-05 03:39:00,37.1,24.1,29.89,West,259,3.0,6.0,59,0.00,,,0.00,Wunderground v.1.15,2013-02-05 08:39:00,
2013-02-05 03:44:00,37.3,23.9,29.89,SW,233,4.0,7.0,58,0.00,,,0.00,Wunderground v.1.15,2013-02-05 08:44:00,
2013-02-05 03:49:00,37.3,23.9,29.90,West,263,2.0,7.0,58,0.00,,,0.00,Wunderground v.1.15,2013-02-05 08:49:00,
2013-02-05 03:54:00,37.5,24.1,29.89,WSW,248,3.0,7.0,58,0.00,,,0.00,Wunderground v.1.15,2013-02-05 08:54:00,
2013-02-05 03:59:00,37.5,24.5,29.89,WSW,253,2.0,7.0,59,0.00,,,0.00,Wunderground v.1.15,2013-02-05 08:59:00,
2013-02-05 04:04:00,37.5,24.5,29.89,WSW,240,3.0,5.0,59,0.00,,,0.00,Wunderground v.1.15,2013-02-05 09:04:00,
2013-02-05 04:09:00,37.5,24.5,29.89,WSW,257,2.0,5.0,59,0.00,,,0.00,Wunderground v.1.15,2013-02-05 09:09:00,
2013-02-05 04:14:00,37.5,24.5,29.88,West,264,2.0,6.0,59,0.00,,,0.00,Wunderground v.1.15,2013-02-05 09:14:00,
2013-02-05 04:19:00,37.4,24.4,29.88,WNW,297,4.0,6.0,59,0.00,,,0.00,Wunderground v.1.15,2013-02-05 09:19:00,
2013-02-05 04:24:00,37.4,24.4,29.88,West,264,2.0,6.0,59,0.00,,,0.00,Wunderground v.1.15,2013-02-05 09:24:00,
2013-02-05 04:29:00,37.4,24.8,29.88,WSW,246,3.0,7.0,60,0.00,,,0.00,Wunderground v.1.15,2013-02-05 09:29:00,
2013-02-05 04:34:00,37.4,24.8,29.89,WSW,245,4.0,6.0,60,0.00,,,0.00,Wunderground v.1.15,2013-02-05 09:34:00,
2013-02-05 04:39:00,37.3,24.7,29.89,WSW,254,2.0,8.0,60,0.00,,,0.00,Wunderground v.1.15,2013-02-05 09:39:00,
2013-02-05 04:44:00,37.3,24.7,29.89,WNW,287,1.0,5.0,60,0.00,,,0.00,Wunderground v.1.15,2013-02-05 09:44:00,
2013-02-05 04:49:00,37.2,25.0,29.89,West,278,3.0,6.0,61,0.00,,,0.00,Wunderground v.1.15,2013-02-05 09:49:00,
2013-02-05 04:54:00,37.3,25.1,29.89,NW,309,1.0,5.0,61,0.00,,,0.00,Wunderground v.1.15,2013-02-05 09:54:00,
2013-02-05 04:59:00,37.3,25.1,29.88,WSW,245,3.0,5.0,61,0.00,,,0.00,Wunderground v.1.15,2013-02-05 09:59:00,
2013-02-05 05:04:00,37.2,25.0,29.88,SSW,212,4.0,4.0,61,0.00,,,0.00,Wunderground v.1.15,2013-02-05 10:04:00,
2013-02-05 05:09:00,37.3,25.1,29.89,WNW,301,4.0,5.0,61,0.00,,,0.00,Wunderground v.1.15,2013-02-05 10:09:00,
2013-02-05 05:14:00,37.3,25.1,29.89,West,262,2.0,6.0,61,0.00,,,0.00,Wunderground v.1.15,2013-02-05 10:14:00,
2013-02-05 05:19:00,37.4,25.2,29.89,NW,316,2.0,6.0,61,0.00,,,0.00,Wunderground v.1.15,2013-02-05 10:19:00,
2013-02-05 05:24:00,37.4,25.2,29.88,West,267,2.0,7.0,61,0.00,,,0.00,Wunderground v.1.15,2013-02-05 10:24:00,
2013-02-05 05:29:00,37.3,25.1,29.88,WSW,242,3.0,7.0,61,0.00,,,0.00,Wunderground v.1.15,2013-02-05 10:29:00,
2013-02-05 05:35:00,37.5,25.3,29.88,WSW,252,3.0,9.0,61,0.00,,,0.00,Wunderground v.1.15,2013-02-05 10:35:00,
2013-02-05 05:40:00,37.5,25.3,29.89,WSW,240,3.0,4.0,61,0.00,,,0.00,Wunderground v.1.15,2013-02-05 10:40:00,
2013-02-05 05:45:00,37.6,25.4,29.89,WSW,255,4.0,7.0,61,0.00,,,0.00,Wunderground v.1.15,2013-02-05 10:45:00,
2013-02-05 05:50:00,37.7,25.5,29.89,West,263,2.0,3.0,61,0.00,,,0.00,Wunderground v.1.15,2013-02-05 10:50:00,
2013-02-05 05:55:00,37.7,25.5,29.89,WNW,294,2.0,3.0,61,0.00,,,0.00,Wunderground v.1.15,2013-02-05 10:55:00,
2013-02-05 06:00:00,37.6,25.7,29.89,West,276,2.0,2.0,62,0.00,,,0.00,Wunderground v.1.15,2013-02-05 11:00:00,
2013-02-05 06:05:00,37.7,25.8,29.88,WSW,257,3.0,4.0,62,0.00,,,0.00,Wunderground v.1.15,2013-02-05 11:05:00,
2013-02-05 06:10:00,37.8,25.9,29.89,WSW,239,3.0,3.0,62,0.00,,,0.00,Wunderground v.1.15,2013-02-05 11:10:00,
2013-02-05 06:15:00,37.9,26.0,29.89,WSW,255,1.0,5.0,62,0.00,,,0.00,Wunderground v.1.15,2013-02-05 11:15:00,
2013-02-05 06:20:00,38.0,26.1,29.89,WNW,294,3.0,3.0,62,0.00,,,0.00,Wunderground v.1.15,2013-02-05 11:20:00,
2013-02-05 06:25:00,38.1,25.8,29.89,West,281,1.0,7.0,61,0.00,,,0.00,Wunderground v.1.15,2013-02-05 11:25:00,
2013-02-05 06:30:00,38.1,26.2,29.89,West,276,1.0,3.0,62,0.00,,,0.00,Wunderground v.1.15,2013-02-05 11:30:00,
2013-02-05 06:35:00,38.1,26.2,29.90,West,276,1.0,4.0,62,0.00,,,0.00,Wunderground v.1.15,2013-02-05 11:35:00,
2013-02-05 06:40:00,38.1,26.2,29.90,WSW,256,3.0,4.0,62,0.00,,,0.00,Wunderground v.1.15,2013-02-05 11:40:00,
2013-02-05 06:45:00,38.1,26.2,29.90,SW,217,2.0,4.0,62,0.00,,,0.00,Wunderground v.1.15,2013-02-05 11:45:00,
2013-02-05 06:50:00,38.0,26.1,29.90,West,266,2.0,2.0,62,0.00,,,0.00,Wunderground v.1.15,2013-02-05 11:50:00,
2013-02-05 06:55:00,38.0,26.1,29.90,WSW,238,0.0,3.0,62,0.00,,,0.00,Wunderground v.1.15,2013-02-05 11:55:00,
2013-02-05 07:00:00,38.0,26.1,29.90,SW,224,2.0,2.0,62,0.00,,,0.00,Wunderground v.1.15,2013-02-05 12:00:00,
2013-02-05 07:05:00,38.0,26.1,29.90,WSW,257,0.0,4.0,62,0.00,,,0.00,Wunderground v.1.15,2013-02-05 12:05:00,
2013-02-05 07:10:00,38.0,26.5,29.90,SW,231,1.0,2.0,63,0.00,,,0.00,Wunderground v.1.15,2013-02-05 12:10:00,
2013-02-05 07:15:00,38.0,26.5,29.90,WNW,290,1.0,3.0,63,0.00,,,0.00,Wunderground v.1.15,2013-02-05 12:15:00,
2013-02-05 07:20:00,38.0,26.5,29.90,SW,229,2.0,2.0,63,0.00,,,0.00,Wunderground v.1.15,2013-02-05 12:20:00,
2013-02-05 07:25:00,38.0,26.5,29.91,West,278,1.0,2.0,63,0.00,,,0.00,Wunderground v.1.15,2013-02-05 12:25:00,
2013-02-05 07:30:00,38.1,26.6,29.91,West,281,1.0,2.0,63,0.00,,,0.00,Wunderground v.1.15,2013-02-05 12:30:00,
2013-02-05 07:35:00,38.1,26.6,29.91,West,260,2.0,3.0,63,0.00,,,0.00,Wunderground v.1.15,2013-02-05 12:35:00,
2013-02-05 07:40:00,38.1,26.6,29.91,WSW,249,2.0,2.0,63,0.00,,,0.00,Wunderground v.1.15,2013-02-05 12:40:00,
2013-02-05 07:45:00,38.1,26.6,29.91,WSW,243,3.0,5.0,63,0.00,,,0.00,Wunderground v.1.15,2013-02-05 12:45:00,
2013-02-05 07:50:00,38.1,26.6,29.91,WNW,283,1.0,3.0,63,0.00,,,0.00,Wunderground v.1.15,2013-02-05 12:50:00,
2013-02-05 07:55:00,38.1,26.6,29.91,WSW,248,2.0,3.0,63,0.00,,,0.00,Wunderground v.1.15,2013-02-05 12:55:00,
2013-02-05 08:00:00,38.1,26.6,29.91,WSW,244,2.0,3.0,63,0.00,,,0.00,Wunderground v.1.15,2013-02-05 13:00:00,
2013-02-05 08:05:00,38.2,26.7,29.91,SW,236,3.0,4.0,63,0.00,,,0.00,Wunderground v.1.15,2013-02-05 13:05:00,
2013-02-05 08:10:00,38.3,26.8,29.92,WSW,253,5.0,5.0,63,0.00,,,0.00,Wunderground v.1.15,2013-02-05 13:10:00,
2013-02-05 08:15:00,38.5,27.0,29.92,WSW,255,3.0,6.0,63,0.00,,,0.00,Wunderground v.1.15,2013-02-05 13:15:00,
2013-02-05 08:20:00,38.7,26.8,29.92,WSW,253,2.0,3.0,62,0.00,,,0.00,Wunderground v.1.15,2013-02-05 13:20:00,
2013-02-05 08:25:00,38.9,27.0,29.91,SW,224,3.0,10.0,62,0.00,,,0.00,Wunderground v.1.15,2013-02-05 13:25:00,
2013-02-05 08:30:00,39.1,26.8,29.92,NE,50,1.0,2.0,61,0.00,,,0.00,Wunderground v.1.15,2013-02-05 13:30:00,
2013-02-05 08:35:00,39.3,27.0,29.92,NW,312,1.0,2.0,61,0.00,,,0.00,Wunderground v.1.15,2013-02-05 13:35:00,
2013-02-05 08:40:00,39.4,27.1,29.93,NNE,26,2.0,2.0,61,0.00,,,0.00,Wunderground v.1.15,2013-02-05 13:40:00,
2013-02-05 08:45:00,39.5,27.2,29.93,NNW,333,1.0,3.0,61,0.00,,,0.00,Wunderground v.1.15,2013-02-05 13:45:00,
2013-02-05 08:50:00,39.7,27.3,29.93,NNE,29,3.0,3.0,61,0.00,,,0.00,Wunderground v.1.15,2013-02-05 13:50:00,
2013-02-05 08:55:00,39.7,27.3,29.93,NNW,337,2.0,4.0,61,0.00,,,0.00,Wunderground v.1.15,2013-02-05 13:55:00,
2013-02-05 09:00:00,40.0,27.2,29.94,NW,322,0.0,3.0,60,0.00,,,0.00,Wunderground v.1.15,2013-02-05 14:00:00,
2013-02-05 09:05:00,40.7,27.5,29.94,NNW,329,2.0,3.0,59,0.00,,,0.00,Wunderground v.1.15,2013-02-05 14:05:00,
2013-02-05 09:10:00,41.0,27.3,29.94,WNW,302,3.0,5.0,58,0.00,,,0.00,Wunderground v.1.15,2013-02-05 14:10:00,
2013-02-05 09:15:00,41.2,27.5,29.94,NNW,335,1.0,7.0,58,0.00,,,0.00,Wunderground v.1.15,2013-02-05 14:15:00,
2013-02-05 09:20:00,41.7,28.0,29.94,West,276,3.0,6.0,58,0.00,,,0.00,Wunderground v.1.15,2013-02-05 14:20:00,
2013-02-05 09:25:00,41.7,27.6,29.94,NNE,18,1.0,6.0,57,0.00,,,0.00,Wunderground v.1.15,2013-02-05 14:25:00,
2013-02-05 09:30:00,41.9,27.8,29.94,North,349,2.0,4.0,57,0.00,,,0.00,Wunderground v.1.15,2013-02-05 14:30:00,
2013-02-05 09:35:00,41.9,27.8,29.94,North,4,2.0,6.0,57,0.00,,,0.00,Wunderground v.1.15,2013-02-05 14:35:00,
2013-02-05 09:40:00,42.0,27.9,29.93,NW,317,3.0,3.0,57,0.00,,,0.00,Wunderground v.1.15,2013-02-05 14:40:00,
2013-02-05 09:45:00,41.9,27.3,29.93,NW,312,1.0,5.0,56,0.00,,,0.00,Wunderground v.1.15,2013-02-05 14:45:00,
2013-02-05 09:50:00,42.0,27.9,29.93,NNW,333,2.0,4.0,57,0.00,,,0.00,Wunderground v.1.15,2013-02-05 14:50:00,
2013-02-05 09:55:00,42.3,28.6,29.94,NW,309,2.0,4.0,58,0.00,,,0.00,Wunderground v.1.15,2013-02-05 14:55:00,
2013-02-05 10:00:00,42.4,27.8,29.94,NNW,333,1.0,2.0,56,0.00,,,0.00,Wunderground v.1.15,2013-02-05 15:00:00,
2013-02-05 10:05:00,42.5,27.9,29.94,NNE,30,1.0,2.0,56,0.00,,,0.00,Wunderground v.1.15,2013-02-05 15:05:00,
2013-02-05 10:10:00,42.5,27.9,29.94,North,356,1.0,2.0,56,0.00,,,0.00,Wunderground v.1.15,2013-02-05 15:10:00,
2013-02-05 10:15:00,42.5,27.9,29.94,NNW,333,1.0,4.0,56,0.00,,,0.00,Wunderground v.1.15,2013-02-05 15:15:00,
2013-02-05 10:20:00,43.0,28.4,29.94,NE,41,1.0,2.0,56,0.00,,,0.00,Wunderground v.1.15,2013-02-05 15:20:00,
2013-02-05 10:25:00,43.2,28.1,29.94,NNE,23,4.0,4.0,55,0.00,,,0.00,Wunderground v.1.15,2013-02-05 15:25:00,
2013-02-05 10:30:00,42.9,28.3,29.94,NE,39,3.0,3.0,56,0.00,,,0.00,Wunderground v.1.15,2013-02-05 15:30:00,
2013-02-05 10:35:00,42.8,28.2,29.94,NE,56,1.0,4.0,56,0.00,,,0.00,Wunderground v.1.15,2013-02-05 15:35:00,
2013-02-05 10:40:00,42.9,28.3,29.93,ENE,58,1.0,2.0,56,0.00,,,0.00,Wunderground v.1.15,2013-02-05 15:40:00,
2013-02-05 10:45:00,43.1,28.9,29.93,NE,37,4.0,4.0,57,0.00,,,0.00,Wunderground v.1.15,2013-02-05 15:45:00,
2013-02-05 10:50:00,42.5,28.3,29.94,NNE,32,2.0,4.0,57,0.00,,,0.00,Wunderground v.1.15,2013-02-05 15:50:00,
2013-02-05 10:55:00,42.2,28.0,29.94,NNW,342,4.0,6.0,57,0.00,,,0.00,Wunderground v.1.15,2013-02-05 15:55:00,
2013-02-05 11:00:00,41.9,27.8,29.94,NNE,32,5.0,5.0,57,0.00,,,0.00,Wunderground v.1.15,2013-02-05 16:00:00,
2013-02-05 11:06:00,41.5,27.8,29.94,NNW,340,1.0,6.0,58,0.00,,,0.00,Wunderground v.1.15,2013-02-05 16:06:00,
2013-02-05 11:10:00,41.5,27.8,29.94,ENE,65,2.0,3.0,58,0.00,,,0.00,Wunderground v.1.15,2013-02-05 16:10:00,
2013-02-05 11:15:00,41.5,27.4,29.94,NE,41,1.0,4.0,57,0.00,,,0.00,Wunderground v.1.15,2013-02-05 16:15:00,
2013-02-05 11:20:00,41.4,27.3,29.93,ESE,102,5.0,5.0,57,0.00,,,0.00,Wunderground v.1.15,2013-02-05 16:20:00,
2013-02-05 11:25:00,41.6,27.9,29.93,ESE,110,2.0,5.0,58,0.00,,,0.00,Wunderground v.1.15,2013-02-05 16:25:00,
2013-02-05 11:30:00,41.9,27.8,29.93,NE,55,2.0,3.0,57,0.00,,,0.00,Wunderground v.1.15,2013-02-05 16:30:00,
2013-02-05 11:35:00,41.9,27.8,29.93,NNE,33,2.0,4.0,57,0.00,,,0.00,Wunderground v.1.15,2013-02-05 16:35:00,
2013-02-05 11:40:00,42.0,27.4,29.93,NE,43,2.0,4.0,56,0.00,,,0.00,Wunderground v.1.15,2013-02-05 16:40:00,
2013-02-05 11:45:00,42.3,28.1,29.94,NNE,19,4.0,5.0,57,0.00,,,0.00,Wunderground v.1.15,2013-02-05 16:45:00,
2013-02-05 11:50:00,42.4,28.2,29.93,NNE,24,3.0,5.0,57,0.00,,,0.00,Wunderground v.1.15,2013-02-05 16:50:00,
2013-02-05 11:55:00,42.6,28.0,29.93,NE,37,2.0,6.0,56,0.00,,,0.00,Wunderground v.1.15,2013-02-05 16:55:00,
2013-02-05 12:00:00,42.8,27.7,29.93,NNE,29,5.0,6.0,55,0.00,,,0.00,Wunderground v.1.15,2013-02-05 17:00:00,
2013-02-05 12:05:00,42.9,28.3,29.93,NNE,19,2.0,6.0,56,0.00,,,0.00,Wunderground v.1.15,2013-02-05 17:05:00,
2013-02-05 12:10:00,43.1,28.0,29.93,NNW,330,3.0,3.0,55,0.00,,,0.00,Wunderground v.1.15,2013-02-05 17:10:00,
2013-02-05 12:16:00,43.3,28.2,29.92,NNE,21,2.0,4.0,55,0.00,,,0.00,Wunderground v.1.15,2013-02-05 17:16:00,
2013-02-05 12:21:00,43.3,28.2,29.92,NE,46,0.0,2.0,55,0.00,,,0.00,Wunderground v.1.15,2013-02-05 17:21:00,
2013-02-05 12:26:00,43.6,28.0,29.91,East,97,3.0,5.0,54,0.00,,,0.00,Wunderground v.1.15,2013-02-05 17:26:00,
2013-02-05 12:31:00,43.8,28.2,29.91,ESE,112,1.0,2.0,54,0.00,,,0.00,Wunderground v.1.15,2013-02-05 17:31:00,
2013-02-05 12:36:00,44.1,28.5,29.90,ENE,68,2.0,3.0,54,0.00,,,0.00,Wunderground v.1.15,2013-02-05 17:36:00,
2013-02-05 12:41:00,44.5,28.4,29.90,North,352,3.0,3.0,53,0.00,,,0.00,Wunderground v.1.15,2013-02-05 17:41:00,
2013-02-05 12:46:00,45.0,28.9,29.90,NE,36,2.0,4.0,53,0.00,,,0.00,Wunderground v.1.15,2013-02-05 17:46:00,
2013-02-05 12:51:00,45.4,28.8,29.89,NNW,341,2.0,3.0,52,0.00,,,0.00,Wunderground v.1.15,2013-02-05 17:51:00,
2013-02-05 12:56:00,46.2,29.1,29.89,WNW,288,1.0,3.0,51,0.00,,,0.00,Wunderground v.1.15,2013-02-05 17:56:00,
2013-02-05 13:01:00,47.3,29.6,29.89,ENE,63,3.0,4.0,50,0.00,,,0.00,Wunderground v.1.15,2013-02-05 18:01:00,
2013-02-05 13:06:00,47.6,29.9,29.88,NE,44,4.0,4.0,50,0.00,,,0.00,Wunderground v.1.15,2013-02-05 18:06:00,
2013-02-05 13:11:00,47.6,29.4,29.87,NE,53,2.0,5.0,49,0.00,,,0.00,Wunderground v.1.15,2013-02-05 18:11:00,
2013-02-05 13:16:00,47.9,29.6,29.87,ENE,68,4.0,7.0,49,0.00,,,0.00,Wunderground v.1.15,2013-02-05 18:16:00,
2013-02-05 13:21:00,47.4,29.2,29.87,NE,51,3.0,4.0,49,0.00,,,0.00,Wunderground v.1.15,2013-02-05 18:21:00,
2013-02-05 13:26:00,48.2,29.9,29.87,NE,34,2.0,4.0,49,0.00,,,0.00,Wunderground v.1.15,2013-02-05 18:26:00,
2013-02-05 13:31:00,48.7,29.9,29.87,NNE,30,1.0,5.0,48,0.00,,,0.00,Wunderground v.1.15,2013-02-05 18:31:00,
2013-02-05 13:36:00,48.8,29.4,29.87,NNW,333,1.0,6.0,47,0.00,,,0.00,Wunderground v.1.15,2013-02-05 18:36:00,
2013-02-05 13:41:00,48.9,30.1,29.87,East,85,2.0,4.0,48,0.00,,,0.00,Wunderground v.1.15,2013-02-05 18:41:00,
2013-02-05 13:46:00,48.8,30.5,29.87,NNE,31,2.0,5.0,49,0.00,,,0.00,Wunderground v.1.15,2013-02-05 18:46:00,
2013-02-05 13:51:00,49.0,30.1,29.87,NNE,23,4.0,5.0,48,0.00,,,0.00,Wunderground v.1.15,2013-02-05 18:51:00,
2013-02-05 13:56:00,48.7,29.9,29.87,NE,50,3.0,6.0,48,0.00,,,0.00,Wunderground v.1.15,2013-02-05 18:56:00,
2013-02-05 14:01:00,48.5,29.7,29.86,East,96,2.0,3.0,48,0.00,,,0.00,Wunderground v.1.15,2013-02-05 19:01:00,
2013-02-05 14:06:00,48.8,30.0,29.86,NE,41,1.0,3.0,48,0.00,,,0.00,Wunderground v.1.15,2013-02-05 19:06:00,
2013-02-05 14:11:00,48.9,30.1,29.86,NE,40,3.0,3.0,48,0.00,,,0.00,Wunderground v.1.15,2013-02-05 19:11:00,
2013-02-05 14:16:00,48.9,30.1,29.86,ENE,67,2.0,4.0,48,0.00,,,0.00,Wunderground v.1.15,2013-02-05 19:16:00,
2013-02-05 14:21:00,48.8,30.0,29.86,ESE,120,2.0,3.0,48,0.00,,,0.00,Wunderground v.1.15,2013-02-05 19:21:00,
2013-02-05 14:26:00,48.6,29.8,29.85,ENE,72,4.0,7.0,48,0.00,,,0.00,Wunderground v.1.15,2013-02-05 19:26:00,
2013-02-05 14:31:00,48.4,30.1,29.85,ESE,108,2.0,7.0,49,0.00,,,0.00,Wunderground v.1.15,2013-02-05 19:31:00,
2013-02-05 14:36:00,48.3,30.0,29.85,NNE,23,0.0,7.0,49,0.00,,,0.00,Wunderground v.1.15,2013-02-05 19:36:00,
2013-02-05 14:41:00,48.5,30.2,29.85,ENE,75,3.0,3.0,49,0.00,,,0.00,Wunderground v.1.15,2013-02-05 19:41:00,
2013-02-05 14:46:00,48.6,30.3,29.85,ESE,105,3.0,7.0,49,0.00,,,0.00,Wunderground v.1.15,2013-02-05 19:46:00,
2013-02-05 14:51:00,48.5,30.2,29.85,East,100,5.0,5.0,49,0.00,,,0.00,Wunderground v.1.15,2013-02-05 19:51:00,
2013-02-05 14:56:00,48.6,30.3,29.84,East,90,4.0,5.0,49,0.00,,,0.00,Wunderground v.1.15,2013-02-05 19:56:00,
2013-02-05 15:01:00,48.7,30.4,29.85,ESE,105,5.0,5.0,49,0.00,,,0.00,Wunderground v.1.15,2013-02-05 20:01:00,
2013-02-05 15:06:00,48.4,30.1,29.85,ENE,69,4.0,7.0,49,0.00,,,0.00,Wunderground v.1.15,2013-02-05 20:06:00,
2013-02-05 15:11:00,48.2,29.9,29.85,ENE,75,4.0,6.0,49,0.00,,,0.00,Wunderground v.1.15,2013-02-05 20:11:00,
2013-02-05 15:16:00,48.0,29.7,29.85,East,82,4.0,6.0,49,0.00,,,0.00,Wunderground v.1.15,2013-02-05 20:16:00,
2013-02-05 15:21:00,47.8,30.0,29.85,ENE,78,3.0,4.0,50,0.00,,,0.00,Wunderground v.1.15,2013-02-05 20:21:00,
2013-02-05 15:26:00,47.6,29.9,29.85,East,89,3.0,7.0,50,0.00,,,0.00,Wunderground v.1.15,2013-02-05 20:26:00,
2013-02-05 15:31:00,47.4,29.7,29.85,NE,47,2.0,4.0,50,0.00,,,0.00,Wunderground v.1.15,2013-02-05 20:31:00,
2013-02-05 15:36:00,47.4,30.2,29.86,East,100,2.0,4.0,51,0.00,,,0.00,Wunderground v.1.15,2013-02-05 20:36:00,
2013-02-05 15:41:00,47.3,30.1,29.86,East,86,5.0,5.0,51,0.00,,,0.00,Wunderground v.1.15,2013-02-05 20:41:00,
2013-02-05 15:46:00,46.9,29.7,29.86,ENE,75,3.0,6.0,51,0.00,,,0.00,Wunderground v.1.15,2013-02-05 20:46:00,
2013-02-05 15:51:00,46.5,29.8,29.86,East,85,5.0,7.0,52,0.00,,,0.00,Wunderground v.1.15,2013-02-05 20:51:00,
2013-02-05 15:56:00,46.1,29.4,29.86,ENE,74,1.0,7.0,52,0.00,,,0.00,Wunderground v.1.15,2013-02-05 20:56:00,
2013-02-05 16:01:00,45.8,29.6,29.86,NE,41,4.0,4.0,53,0.00,,,0.00,Wunderground v.1.15,2013-02-05 21:01:00,
2013-02-05 16:06:00,45.5,29.3,29.86,NNE,23,3.0,7.0,53,0.00,,,0.00,Wunderground v.1.15,2013-02-05 21:06:00,
2013-02-05 16:11:00,45.4,29.7,29.86,NE,41,1.0,4.0,54,0.00,,,0.00,Wunderground v.1.15,2013-02-05 21:11:00,
2013-02-05 16:16:00,45.3,29.6,29.86,East,91,3.0,6.0,54,0.00,,,0.00,Wunderground v.1.15,2013-02-05 21:16:00,
2013-02-05 16:21:00,45.2,29.5,29.87,NNE,30,2.0,3.0,54,0.00,,,0.00,Wunderground v.1.15,2013-02-05 21:21:00,
2013-02-05 16:26:00,45.0,29.3,29.87,NE,52,5.0,5.0,54,0.00,,,0.00,Wunderground v.1.15,2013-02-05 21:26:00,
2013-02-05 16:31:00,44.9,29.7,29.87,ENE,62,1.0,3.0,55,0.00,,,0.00,Wunderground v.1.15,2013-02-05 21:31:00,
2013-02-05 16:36:00,44.9,29.7,29.87,East,101,1.0,3.0,55,0.00,,,0.00,Wunderground v.1.15,2013-02-05 21:36:00,
2013-02-05 16:41:00,44.9,29.7,29.88,East,85,1.0,2.0,55,0.00,,,0.00,Wunderground v.1.15,2013-02-05 21:41:00,
2013-02-05 16:46:00,44.8,29.6,29.88,East,100,2.0,3.0,55,0.00,,,0.00,Wunderground v.1.15,2013-02-05 21:46:00,
2013-02-05 16:51:00,44.7,29.5,29.87,East,89,3.0,4.0,55,0.00,,,0.00,Wunderground v.1.15,2013-02-05 21:51:00,
2013-02-05 16:56:00,44.5,29.3,29.87,NE,39,2.0,4.0,55,0.00,,,0.00,Wunderground v.1.15,2013-02-05 21:56:00,
2013-02-05 17:01:00,44.4,29.7,29.87,NE,44,2.0,3.0,56,0.00,,,0.00,Wunderground v.1.15,2013-02-05 22:01:00,
2013-02-05 17:06:00,44.3,29.6,29.87,NE,36,1.0,3.0,56,0.00,,,0.00,Wunderground v.1.15,2013-02-05 22:06:00,
2013-02-05 17:11:00,44.2,29.5,29.88,NW,314,1.0,2.0,56,0.00,,,0.00,Wunderground v.1.15,2013-02-05 22:11:00,
2013-02-05 17:16:00,44.1,29.8,29.88,NW,316,1.0,2.0,57,0.00,,,0.00,Wunderground v.1.15,2013-02-05 22:16:00,
2013-02-05 17:21:00,44.0,29.7,29.88,NE,37,2.0,3.0,57,0.00,,,0.00,Wunderground v.1.15,2013-02-05 22:21:00,
2013-02-05 17:27:00,43.8,29.5,29.88,NE,34,0.0,3.0,57,0.00,,,0.00,Wunderground v.1.15,2013-02-05 22:27:00,
2013-02-05 17:32:00,43.7,29.5,29.88,East,79,1.0,2.0,57,0.00,,,0.00,Wunderground v.1.15,2013-02-05 22:32:00,
2013-02-05 17:37:00,43.5,29.3,29.88,ENE,75,0.0,2.0,57,0.00,,,0.00,Wunderground v.1.15,2013-02-05 22:37:00,
2013-02-05 17:42:00,43.4,29.2,29.88,East,79,3.0,3.0,57,0.00,,,0.00,Wunderground v.1.15,2013-02-05 22:42:00,
2013-02-05 17:47:00,43.3,29.5,29.88,WNW,301,1.0,4.0,58,0.00,,,0.00,Wunderground v.1.15,2013-02-05 22:47:00,
2013-02-05 17:52:00,43.1,29.3,29.89,West,259,3.0,3.0,58,0.00,,,0.00,Wunderground v.1.15,2013-02-05 22:52:00,
2013-02-05 17:57:00,43.1,29.3,29.88,NNE,15,2.0,5.0,58,0.00,,,0.00,Wunderground v.1.15,2013-02-05 22:57:00,
2013-02-05 18:02:00,43.1,29.7,29.89,NNW,347,0.0,2.0,59,0.00,,,0.00,Wunderground v.1.15,2013-02-05 23:02:00,
2013-02-05 18:07:00,42.9,29.5,29.89,NW,312,2.0,2.0,59,0.00,,,0.00,Wunderground v.1.15,2013-02-05 23:07:00,
2013-02-05 18:12:00,42.8,29.5,29.89,WNW,290,1.0,1.0,59,0.00,,,0.00,Wunderground v.1.15,2013-02-05 23:12:00,
2013-02-05 18:17:00,42.6,29.3,29.89,NE,39,2.0,3.0,59,0.00,,,0.00,Wunderground v.1.15,2013-02-05 23:17:00,
2013-02-05 18:22:00,42.3,29.4,29.89,East,84,3.0,3.0,60,0.00,,,0.00,Wunderground v.1.15,2013-02-05 23:22:00,
2013-02-05 18:27:00,42.1,29.2,29.89,NE,39,1.0,4.0,60,0.00,,,0.00,Wunderground v.1.15,2013-02-05 23:27:00,
2013-02-05 18:32:00,42.0,29.1,29.89,ENE,68,2.0,2.0,60,0.00,,,0.00,Wunderground v.1.15,2013-02-05 23:32:00,
2013-02-05 18:37:00,41.7,28.8,29.89,NE,39,1.0,3.0,60,0.00,,,0.00,Wunderground v.1.15,2013-02-05 23:37:00,
2013-02-05 18:42:00,41.6,29.1,29.89,ENE,57,2.0,3.0,61,0.00,,,0.00,Wunderground v.1.15,2013-02-05 23:42:00,
2013-02-05 18:47:00,41.5,29.0,29.89,East,91,0.0,3.0,61,0.00,,,0.00,Wunderground v.1.15,2013-02-05 23:47:00,
2013-02-05 18:52:00,41.3,28.9,29.90,NE,47,2.0,2.0,61,0.00,,,0.00,Wunderground v.1.15,2013-02-05 23:52:00,
2013-02-05 18:57:00,41.2,28.8,29.90,NE,39,2.0,4.0,61,0.00,,,0.00,Wunderground v.1.15,2013-02-05 23:57:00,
2013-02-05 19:02:00,41.1,28.7,29.90,ENE,72,1.0,2.0,61,0.00,,,0.00,Wunderground v.1.15,2013-02-06 00:02:00,
2013-02-05 19:07:00,41.0,28.6,29.90,North,8,2.0,4.0,61,0.00,,,0.00,Wunderground v.1.15,2013-02-06 00:07:00,
2013-02-05 19:12:00,40.8,28.8,29.90,ENE,57,0.0,2.0,62,0.00,,,0.00,Wunderground v.1.15,2013-02-06 00:12:00,
2013-02-05 19:17:00,40.7,28.7,29.90,East,86,3.0,3.0,62,0.00,,,0.00,Wunderground v.1.15,2013-02-06 00:17:00,
2013-02-05 19:22:00,40.7,28.7,29.90,NE,39,0.0,2.0,62,0.00,,,0.00,Wunderground v.1.15,2013-02-06 00:22:00,
2013-02-05 19:27:00,40.5,28.5,29.90,NE,52,1.0,2.0,62,0.00,,,0.00,Wunderground v.1.15,2013-02-06 00:27:00,
2013-02-05 19:32:00,40.4,28.4,29.91,NE,47,1.0,2.0,62,0.00,,,0.00,Wunderground v.1.15,2013-02-06 00:32:00,
2013-02-05 19:37:00,40.3,28.7,29.91,North,3,1.0,2.0,63,0.00,,,0.00,Wunderground v.1.15,2013-02-06 00:37:00,
2013-02-05 19:42:00,40.1,28.5,29.91,NNE,32,1.0,1.0,63,0.00,,,0.00,Wunderground v.1.15,2013-02-06 00:42:00,
2013-02-05 19:47:00,39.9,28.7,29.91,ENE,70,1.0,2.0,64,0.00,,,0.00,Wunderground v.1.15,2013-02-06 00:47:00,
2013-02-05 19:52:00,39.8,28.6,29.91,ENE,68,2.0,2.0,64,0.00,,,0.00,Wunderground v.1.15,2013-02-06 00:52:00,
2013-02-05 19:57:00,39.6,28.4,29.91,North,11,1.0,2.0,64,0.00,,,0.00,Wunderground v.1.15,2013-02-06 00:57:00,
2013-02-05 20:02:00,39.5,28.7,29.91,NE,49,1.0,2.0,65,0.00,,,0.00,Wunderground v.1.15,2013-02-06 01:02:00,
2013-02-05 20:08:00,39.3,28.5,29.91,ENE,65,0.0,2.0,65,0.00,,,0.00,Wunderground v.1.15,2013-02-06 01:08:00,
2013-02-05 20:13:00,39.1,28.3,29.91,ENE,65,1.0,1.0,65,0.00,,,0.00,Wunderground v.1.15,2013-02-06 01:13:00,
2013-02-05 20:18:00,38.9,28.5,29.91,ENE,65,0.0,1.0,66,0.00,,,0.00,Wunderground v.1.15,2013-02-06 01:18:00,
2013-02-05 20:23:00,38.7,28.3,29.91,ENE,65,0.0,0.0,66,0.00,,,0.00,Wunderground v.1.15,2013-02-06 01:23:00,
2013-02-05 20:28:00,38.3,28.3,29.91,ENE,65,0.0,0.0,67,0.00,,,0.00,Wunderground v.1.15,2013-02-06 01:28:00,
2013-02-05 20:33:00,38.2,28.2,29.91,NE,41,0.0,2.0,67,0.00,,,0.00,Wunderground v.1.15,2013-02-06 01:33:00,
2013-02-05 20:38:00,38.3,28.3,29.92,NNW,328,1.0,2.0,67,0.00,,,0.00,Wunderground v.1.15,2013-02-06 01:38:00,
2013-02-05 20:43:00,38.2,28.2,29.92,NE,47,0.0,1.0,67,0.00,,,0.00,Wunderground v.1.15,2013-02-06 01:43:00,
2013-02-05 20:48:00,38.0,28.4,29.92,NE,47,0.0,1.0,68,0.00,,,0.00,Wunderground v.1.15,2013-02-06 01:48:00,
2013-02-05 20:53:00,37.6,28.3,29.92,NE,47,0.0,0.0,69,0.00,,,0.00,Wunderground v.1.15,2013-02-06 01:53:00,
2013-02-05 20:58:00,37.3,28.4,29.92,NE,46,0.0,0.0,70,0.00,,,0.00,Wunderground v.1.15,2013-02-06 01:58:00,
2013-02-05 21:03:00,37.2,28.3,29.92,NE,47,0.0,1.0,70,0.00,,,0.00,Wunderground v.1.15,2013-02-06 02:03:00,
2013-02-05 21:08:00,37.3,28.1,29.92,NE,47,0.0,1.0,69,0.00,,,0.00,Wunderground v.1.15,2013-02-06 02:08:00,
2013-02-05 21:13:00,37.1,28.2,29.92,NE,47,0.0,0.0,70,0.00,,,0.00,Wunderground v.1.15,2013-02-06 02:13:00,
2013-02-05 21:18:00,36.8,28.3,29.92,NE,47,0.0,0.0,71,0.00,,,0.00,Wunderground v.1.15,2013-02-06 02:18:00,
2013-02-05 21:23:00,36.5,28.3,29.92,NE,47,0.0,1.0,72,0.00,,,0.00,Wunderground v.1.15,2013-02-06 02:23:00,
2013-02-05 21:28:00,36.3,28.1,29.92,NE,47,0.0,1.0,72,0.00,,,0.00,Wunderground v.1.15,2013-02-06 02:28:00,
2013-02-05 21:33:00,36.2,28.0,29.92,NE,46,0.0,0.0,72,0.00,,,0.00,Wunderground v.1.15,2013-02-06 02:33:00,
2013-02-05 21:38:00,35.8,28.0,29.93,NE,47,0.0,0.0,73,0.00,,,0.00,Wunderground v.1.15,2013-02-06 02:38:00,
2013-02-05 21:43:00,35.2,27.7,29.93,NE,47,0.0,0.0,74,0.00,,,0.00,Wunderground v.1.15,2013-02-06 02:43:00,
2013-02-05 21:48:00,35.0,28.2,29.93,NE,47,0.0,0.0,76,0.00,,,0.00,Wunderground v.1.15,2013-02-06 02:48:00,
2013-02-05 21:53:00,35.1,28.0,29.94,NE,46,0.0,1.0,75,0.00,,,0.00,Wunderground v.1.15,2013-02-06 02:53:00,
2013-02-05 21:58:00,34.9,27.8,29.93,NE,47,0.0,1.0,75,0.00,,,0.00,Wunderground v.1.15,2013-02-06 02:58:00,
2013-02-05 22:03:00,34.7,27.9,29.93,NE,47,0.0,0.0,76,0.00,,,0.00,Wunderground v.1.15,2013-02-06 03:03:00,
2013-02-05 22:08:00,34.5,27.7,29.94,NE,47,1.0,1.0,76,0.00,,,0.00,Wunderground v.1.15,2013-02-06 03:08:00,
2013-02-05 22:13:00,35.0,27.9,29.94,NE,47,0.0,0.0,75,0.00,,,0.00,Wunderground v.1.15,2013-02-06 03:13:00,
2013-02-05 22:18:00,34.7,27.9,29.95,North,352,0.0,2.0,76,0.00,,,0.00,Wunderground v.1.15,2013-02-06 03:18:00,
2013-02-05 22:23:00,34.8,27.7,29.94,North,353,0.0,0.0,75,0.00,,,0.00,Wunderground v.1.15,2013-02-06 03:23:00,
2013-02-05 22:28:00,34.8,27.7,29.94,North,353,0.0,1.0,75,0.00,,,0.00,Wunderground v.1.15,2013-02-06 03:28:00,
2013-02-05 22:33:00,34.6,27.8,29.94,North,354,0.0,1.0,76,0.00,,,0.00,Wunderground v.1.15,2013-02-06 03:33:00,
2013-02-05 22:38:00,34.8,28.0,29.94,NNE,29,0.0,1.0,76,0.00,,,0.00,Wunderground v.1.15,2013-02-06 03:38:00,
2013-02-05 22:43:00,34.9,28.1,29.95,NNE,27,1.0,2.0,76,0.00,,,0.00,Wunderground v.1.15,2013-02-06 03:43:00,
2013-02-05 22:48:00,35.0,27.9,29.95,NNE,27,1.0,3.0,75,0.00,,,0.00,Wunderground v.1.15,2013-02-06 03:48:00,
2013-02-05 22:53:00,35.1,28.0,29.95,North,1,1.0,2.0,75,0.00,,,0.00,Wunderground v.1.15,2013-02-06 03:53:00,
2013-02-05 22:59:00,35.0,27.9,29.95,NNW,344,1.0,3.0,75,0.00,,,0.00,Wunderground v.1.15,2013-02-06 03:59:00,
2013-02-05 23:04:00,34.8,27.7,29.95,NNE,17,0.0,1.0,75,0.00,,,0.00,Wunderground v.1.15,2013-02-06 04:04:00,
2013-02-05 23:09:00,34.6,27.5,29.95,NNE,18,0.0,1.0,75,0.00,,,0.00,Wunderground v.1.15,2013-02-06 04:09:00,
2013-02-05 23:14:00,34.5,27.4,29.95,NNE,18,0.0,0.0,75,0.00,,,0.00,Wunderground v.1.15,2013-02-06 04:14:00,
2013-02-05 23:19:00,34.1,27.3,29.94,NNE,18,0.0,0.0,76,0.00,,,0.00,Wunderground v.1.15,2013-02-06 04:19:00,
2013-02-05 23:24:00,33.8,27.4,29.94,NNE,18,0.0,0.0,77,0.00,,,0.00,Wunderground v.1.15,2013-02-06 04:24:00,
2013-02-05 23:29:00,33.6,27.2,29.95,NNE,18,0.0,0.0,77,0.00,,,0.00,Wunderground v.1.15,2013-02-06 04:29:00,
2013-02-05 23:34:00,33.3,27.2,29.94,NNE,18,0.0,1.0,78,0.00,,,0.00,Wunderground v.1.15,2013-02-06 04:34:00,
2013-02-05 23:39:00,33.1,27.0,29.95,NNE,18,0.0,1.0,78,0.00,,,0.00,Wunderground v.1.15,2013-02-06 04:39:00,
2013-02-05 23:44:00,33.0,27.2,29.95,North,352,0.0,1.0,79,0.00,,,0.00,Wunderground v.1.15,2013-02-06 04:44:00,
2013-02-05 23:49:00,33.1,27.3,29.95,North,359,1.0,1.0,79,0.00,,,0.00,Wunderground v.1.15,2013-02-06 04:49:00,
2013-02-05 23:54:00,33.1,27.3,29.95,NNE,21,2.0,3.0,79,0.00,,,0.00,Wunderground v.1.15,2013-02-06 04:54:00,
2013-02-05 23:59:00,33.3,27.5,29.95,NNE,18,2.0,3.0,79,0.00,,,0.00,Wunderground v.1.15,2013-02-06 04:59:00,